Skip Page Navigation
NASA JPL Caltech
NASA Logo - Jet Propulsion Laboratory + View the NASA Portal
+ Center for Near-Earth Object Studies
JPL Home Earth Solar System Stars & Galaxies Technology
JPL Solar System Dynamics
BODIES ORBITS EPHEMERIDES TOOLS PHYSICAL DATA DISCOVERY FAQ SITE MAP
JPL Small-Body Database Browser
Search: [ help ]  
332010 (2005 MT42)
Classification: Outer Main-belt Asteroid          SPK-ID: 2332010
Ephemeris | Orbit Diagram | Orbital Elements | Mission Design | Physical Parameters | Discovery Circumstances | Close-Approach Data ]

[ show orbit diagram ]
Orbital Elements at Epoch 2459000.5 (2020-May-31.0) TDB
Reference: JPL 15 (heliocentric ecliptic J2000)
 Element Value Uncertainty (1-sigma)   Units 
e .229552004131682 5.9763e-08  
a 4.002556423850971 6.7036e-08 au
q 3.083761575105842 2.4032e-07 au
i 3.436560309903215 7.3451e-06 deg
node 199.1713874710689 0.00010544 deg
peri 146.2552994630829 0.00010683 deg
M 289.0788617383102 2.0503e-05 deg
tp 2459576.706054953780
(2021-Dec-28.20605495)
0.00017809 TDB
period 2924.856888477389
8.01
7.3479e-05
2.012e-07
d
yr
n .1230829451581843 3.0921e-09 deg/d
Q 4.921351272596099 8.2424e-08 au
  Orbit Determination Parameters
   # obs. used (total)      215  
   data-arc span      7485 days (20.49 yr)  
   first obs. used      1998-10-27  
   last obs. used      2019-04-25  
   planetary ephem.      DE431  
   SB-pert. ephem.      SB431-N16  
   condition code      0  
   norm. resid. RMS      .55741  
   source      ORB  
   producer      Otto Matic  
   solution date      2020-Feb-25 21:04:54  

Additional Information
 Earth MOID = 2.07751 au 
 Jupiter MOID = .581434 au 
 T_jup = 3.004 
[ show covariance matrix ]

Ephemeris | Orbit Diagram | Orbital Elements | Mission Design | Physical Parameters | Discovery Circumstances | Close-Approach Data ]

Physical Parameter Table
Parameter Symbol Value Units Sigma Reference Notes
absolute magnitude H 14.8   n/a MPO440510  

332010 (2005 MT42)          Discovered 2005-Jun-29 by NEAT at Palomar
Reference: 20120703/Numbers.arcLast Updated: 2012-07-09

[ hide close-approach data ]
Close-Approach Data   ...sorted by Date/Time (TDB)
Date/Time (TDB) Time Uncertainty
(days_HH:MM)
Body Nominal Distance (au) Minimum Distance (au) Maximum Distance (au) V-relative (km/s) V-infinity (km/s) JD (TDB) Time Uncertainty (minutes) Semi-major axis (km) Semi-minor axis (km) range-LOV angle (deg) N-sigma BP Orbit Ref. Reference Modified
1949-Nov-06 20:12 00:03 Jupiter 1.94443183313367 1.94443099117469 1.94443267509276 4.88366235341425 4.79363423431608 2433227.341963948 2.87604666790717 92.8689927999141 36.518439180109 83.2517919375477 2225445.48248649 T 15 CATAB v2.0f-lin.ifort 2020-Feb-25 21:05:04 2020-Feb-25 21:05
1973-Jul-15 10:21 00:03 Jupiter 1.91107562992142 1.91107460065779 1.91107665918516 4.75384987401124 4.65968381496169 2441878.930919095 2.71908891182564 89.7414490632876 42.0527136768645 76.4093204809287 1891869.61763535 T 15 CATAB v2.0f-lin.ifort 2020-Feb-25 21:05:04 2020-Feb-25 21:05
1997-Jul-28 13:22 00:01 Jupiter 1.92466652652541 1.92466568996649 1.92466736308432 4.98462242174942 4.89553723495955 2450658.056963168 1.30119313980187 69.1192344314635 38.3255184395407 85.4442485549917 2375121.37715792 T 15 CATAB v2.0f-lin.ifort 2020-Feb-25 21:05:04 2020-Feb-25 21:05
2021-Oct-22 16:30 < 00:01 Jupiter 1.92099175314597 1.92099099830918 1.92099250798275 5.19014736134767 5.1044852851147 2459510.187561767 0.848715108673577 64.8133679494795 34.5981874675077 -81.9498343596018 2776422.9163672 T 15 CATAB v2.0f-lin.ifort 2020-Feb-25 21:05:04 2020-Feb-25 21:05
2046-Jan-12 13:20 00:03 Jupiter 1.89950550877767 1.89950461636337 1.89950640119295 5.19036079759667 5.10372515457077 2468358.055547471 2.74666880098206 129.603812201526 34.2276277923306 -78.5946620585334 2726275.19049458 T 15 CATAB v2.0f-lin.ifort 2020-Feb-25 21:05:04 2020-Feb-25 21:05
2070-Jan-24 06:04 00:04 Jupiter 1.8710083262059 1.87100716989441 1.87100948252123 5.07508984968742 4.98508964419264 2477135.753103099 3.98018211866294 185.827612866029 34.3594625790704 -76.7241841667407 2579264.37754795 T 15 CATAB v2.0f-lin.ifort 2020-Feb-25 21:05:04 2020-Feb-25 21:05
2093-Sep-27 23:48 00:04 Jupiter 1.9075944172111 1.90759345952344 1.90759537490148 5.2038125301168 5.11777410630706 2485783.491380629 3.88805834803707 182.580800698673 34.0339056925913 -80.5372494247416 2715580.64735223 T 15 CATAB v2.0f-lin.ifort 2020-Feb-25 21:05:04 2020-Feb-25 21:05
2117-Jan-29 13:21 00:03 Jupiter 1.9917869525826 1.99178616164655 1.99178774351864 5.54130317469494 5.46402101911568 2494307.056019881 2.82505639302784 135.137335725751 37.4255829884392 -89.7230056213655 2727436.31546641 T 15 CATAB v2.0f-lin.ifort 2020-Feb-25 21:05:04 2020-Feb-25 21:05
2186-Jun-09 17:53 00:03 Jupiter 1.99356180638576 1.99356103951211 1.99356257325942 4.92695125905357 4.83994739022189 2519640.244935186 2.94968900497356 68.9161782135118 34.3801246109708 87.2582202213304 2130067.77605598 T 15 CATAB v2.0f-lin.ifort 2020-Feb-25 21:05:04 2020-Feb-25 21:05
Ephemeris | Orbit Diagram | Orbital Elements | Mission Design | Physical Parameters | Discovery Circumstances | Close-Approach Data ]
ABOUT SSD CREDITS/AWARDS PRIVACY/COPYRIGHT GLOSSARY LINKS
FirstGov 2020-Oct-27 15:35 UT
(server date/time)  
NASA Home Page
Site Manager:   Ryan S. Park
Webmaster  Alan B. Chamberlin